Wind_Speed
29 29 28 28 28 28 28 28 29 29 30 30 31 31 31 31 31 31 30 31 31 31 30 30 30 30 30 30 30 29 29 29 28 29 29 29 29 29 30 30 30 30 30
30 30 30 29 29 29 29 30 30 30 31 31 31 32 32 33 33 33 32 32 32 32 31 31 31 30 30 30 30 30 30 31 31 31 31 31 31 32 32 32 32 32 32
31 31 30 30 29 29 30 30 30 31 32 32 32 33 33 33 33 33 32 32 32 33 32 32 32 32 31 32 32 32 31 32 32 32 33 33 33 34 34 34 34 34 34
31 31 31 30 29 29 30 30 31 32 32 33 33 33 34 33 33 33 33 33 33 34 34 33 33 32 32 33 33 33 32 33 33 34 34 35 36 36 36 36 36 36 36
32 32 31 31 31 30 31 32 32 32 33 34 34 34 34 34 33 33 34 33 33 34 35 34 34 34 34 33 34 34 34 34 35 36 37 37 36 36 37 37 37 37 37
32 31 31 30 31 31 31 31 32 33 33 34 34 33 34 34 34 33 34 35 35 35 35 36 36 35 35 35 35 36 36 36 36 37 38 38 37 37 37 38 38 38 37
31 30 30 30 31 31 31 31 31 32 32 32 32 33 34 34 34 34 35 35 36 36 36 37 37 37 37 37 37 37 37 37 38 38 38 38 39 39 39 40 40 39 39
32 32 32 31 30 30 31 30 30 30 30 30 31 32 32 33 34 35 35 35 36 37 38 38 38 39 39 39 39 39 39 38 39 39 39 40 40 40 40 41 40 40 40
32 31 32 32 31 31 31 30 29 29 29 29 29 31 32 32 33 33 35 36 37 38 39 40 40 39 39 39 39 39 39 39 40 40 41 41 41 41 41 41 41 41 40
32 32 31 31 30 30 30 30 30 31 30 30 29 30 32 32 33 33 34 35 36 37 39 41 41 41 41 41 41 41 41 41 41 41 41 41 42 41 41 40 40 40 40
32 32 32 32 31 31 30 30 30 30 31 30 30 31 32 33 33 34 33 34 36 37 38 39 40 41 42 42 42 42 42 42 42 42 42 41 42 42 41 41 41 41 41
32 33 33 33 33 33 33 32 31 31 31 31 31 32 32 33 34 34 34 35 35 36 37 38 39 40 40 41 42 42 42 42 41 41 41 41 41 41 41 42 42 41 42
34 34 35 35 34 35 35 35 34 34 33 33 33 33 33 34 35 35 36 36 36 36 37 38 38 39 40 40 41 41 42 42 42 41 41 41 40 41 41 41 41 41 41
35 35 36 37 36 36 36 36 36 36 36 35 35 35 35 36 36 36 37 37 37 37 37 37 38 38 39 39 40 40 41 42 42 41 41 41 41 42 41 40 39 40 40
36 36 37 38 38 38 38 39 39 38 38 37 37 37 37 37 38 38 38 38 38 37 36 37 37 38 38 38 39 40 40 41 42 42 42 42 42 41 41 40 40 40 40
37 39 39 39 39 40 40 40 40 39 39 39 39 39 39 39 39 39 39 39 39 39 38 37 38 38 39 39 40 40 41 42 41 41 41 41 41 41 41 41 41 41 42
39 39 39 39 40 41 41 41 41 42 41 41 41 41 41 40 40 41 41 40 40 40 40 39 39 40 40 40 40 41 41 41 41 41 40 40 40 41 41 40 41 41 41
41 41 40 40 41 41 42 43 43 43 43 43 43 43 43 42 42 41 41 41 41 41 41 41 40 40 41 40 41 41 41 42 42 41 42 41 41 40 40 40 40 40 40
43 42 41 41 42 42 42 44 44 44 44 44 44 44 44 43 42 42 41 41 41 42 42 42 42 42 42 41 41 41 42 42 42 42 42 42 41 40 40 41 40 39 39
43 42 42 41 42 42 43 44 44 44 44 44 44 44 44 43 43 42 42 42 42 42 42 43 43 42 42 42 42 42 42 42 42 42 41 41 40 40 41 40 40 39 38
44 44 43 43 43 43 43 43 44 44 44 44 44 44 44 44 44 44 44 44 44 44 43 43 43 43 42 42 43 43 43 43 42 42 41 41 41 40 40 40 40 39 39
45 45 45 45 45 45 45 45 45 45 45 45 45 45 45 45 45 45 46 46 45 45 44 44 43 43 43 43 43 43 43 43 43 42 42 42 41 41 41 40 40 39 39
47 47 47 47 47 47 47 47 47 47 47 48 47 47 47 47 47 47 47 47 47 46 46 45 44 43 44 44 44 43 43 43 43 42 42 42 42 41 41 40 40 40 40
49 49 49 49 49 49 50 50 50 50 50 49 49 49 49 48 48 49 49 48 48 47 46 46 45 44 44 44 44 44 44 44 43 43 43 43 43 42 41 41 40 40 40
51 51 52 52 52 52 52 52 52 52 51 51 51 51 51 50 50 51 51 50 49 48 47 47 46 46 45 45 44 44 44 44 44 44 44 43 43 42 42 42 41 41 41
53 53 53 54 54 54 54 54 54 54 53 53 52 52 52 52 52 53 53 51 50 49 48 48 47 46 46 46 46 45 44 44 44 44 44 43 43 43 43 42 43 43 42
Wind_Direction
245 247 249 252 254 256 258 260 261 262 262 263 264 265 265 266 268 269 269 268 267 267 269 270 271 272 274 276 276 276 277 279 280 281 283 285 287 288 289 289 290 291 290
245 248 250 253 256 258 260 262 264 264 263 264 265 265 266 267 268 269 268 268 267 267 270 270 271 271 272 274 275 276 277 278 280 281 282 284 285 286 288 288 289 289 289
245 248 250 252 255 258 261 263 265 266 265 264 264 265 266 267 267 268 268 268 267 268 270 270 270 272 271 273 275 276 277 277 279 281 281 282 284 286 287 287 287 288 287
246 247 249 250 253 257 261 264 266 266 266 266 265 265 265 265 266 266 267 267 267 268 269 270 271 272 272 273 275 276 277 279 280 281 282 282 283 286 287 286 286 287 286
248 249 251 252 255 258 261 264 266 266 266 266 266 266 265 265 266 266 267 267 268 269 269 268 270 272 273 274 275 276 278 278 279 281 282 284 284 285 286 286 285 286 286
249 250 252 255 257 260 263 266 266 266 266 266 265 265 265 265 267 268 268 267 268 268 269 269 270 272 272 273 274 275 277 278 280 281 282 283 284 284 285 285 285 285 285
249 251 253 256 258 261 263 266 268 268 267 266 265 265 265 266 267 268 269 268 267 268 269 269 269 270 271 272 273 275 276 278 279 281 283 284 285 285 285 286 286 284 284
248 252 254 258 261 262 263 265 269 270 270 269 268 267 267 267 267 269 269 269 269 269 269 269 269 269 270 271 273 274 276 277 278 280 282 283 284 285 285 286 285 284 284
249 252 254 258 261 264 264 265 267 269 272 272 271 271 270 269 270 270 271 271 271 271 270 270 270 270 270 271 272 272 275 277 278 280 281 283 283 285 285 286 285 285 284
249 251 254 257 260 263 264 265 267 269 271 271 271 272 272 272 272 273 273 273 274 273 271 270 269 269 270 270 271 272 274 276 278 280 281 282 282 283 284 284 285 285 284
250 253 256 258 262 264 265 266 268 268 269 270 272 273 272 272 272 273 273 273 274 273 272 271 270 270 270 270 271 272 274 276 278 278 279 280 281 282 283 283 283 283 283
253 255 257 260 262 263 264 265 267 268 269 270 272 272 272 272 272 273 275 276 275 275 273 273 272 271 272 271 271 273 273 275 277 278 279 280 280 281 282 282 282 282 283
254 256 259 261 263 263 263 264 267 268 270 272 272 273 273 274 273 275 276 276 276 275 274 274 273 272 272 272 272 273 273 274 277 278 279 280 281 281 283 282 283 283 283
257 259 260 262 263 264 264 265 267 268 271 272 273 273 275 275 275 275 276 277 276 276 275 274 273 272 272 272 273 274 275 276 277 279 280 281 281 281 282 283 284 284 284
262 262 262 263 263 265 266 266 267 268 270 271 272 272 274 274 275 275 276 276 276 276 275 274 273 272 273 273 273 275 275 277 278 280 281 281 282 281 282 283 283 284 285
264 263 264 265 265 265 266 267 269 270 270 271 272 272 273 274 274 275 276 275 275 275 274 274 273 272 273 273 274 275 275 278 279 281 282 281 281 281 282 283 283 284 285
265 266 265 266 265 266 267 268 268 269 270 271 272 273 273 274 275 275 274 274 274 275 275 274 274 274 274 274 274 275 276 278 279 280 281 281 281 281 282 283 285 284 284
265 267 267 267 267 267 267 267 268 269 270 272 272 272 273 274 274 274 273 272 273 274 275 274 275 275 275 275 275 275 276 277 278 279 279 280 280 281 281 283 284 283 284
267 268 268 268 267 267 268 268 269 270 272 272 272 272 272 273 273 273 273 273 273 274 274 274 274 274 275 274 274 275 276 276 278 278 278 279 279 281 282 283 283 283 283
268 268 269 269 270 269 269 270 270 271 272 271 271 272 272 273 273 273 273 273 273 273 274 274 274 274 274 273 274 275 275 276 277 278 278 278 278 280 281 282 282 283 282
267 268 269 269 270 271 271 271 271 272 272 272 272 272 272 272 272 272 272 273 273 273 273 274 274 274 274 274 274 275 275 276 277 277 277 277 278 279 280 280 281 282 281
267 268 268 269 270 270 271 272 272 272 273 273 273 273 272 272 271 271 272 272 272 273 273 273 273 273 273 274 275 275 275 275 276 276 276 277 278 278 280 279 279 280 280
267 268 268 269 270 271 271 272 273 273 273 273 273 273 272 272 271 271 271 271 271 272 272 273 272 272 273 274 274 274 274 274 275 275 276 277 278 278 279 280 279 279 279
268 269 269 270 271 271 272 272 272 273 273 273 272 272 272 271 271 270 270 270 270 270 271 271 271 272 272 273 273 273 273 273 274 275 276 277 277 277 278 279 279 279 279
269 270 270 271 271 271 272 272 273 273 273 272 272 271 271 270 270 270 269 269 269 269 269 269 270 270 271 272 272 273 273 273 274 275 275 276 276 276 277 277 278 278 278
270 270 271 271 271 271 271 272 272 272 272 271 271 271 270 270 270 269 268 267 267 267 267 267 267 268 269 271 271 272 272 273 274 275 276 276 276 276 277 277 277 278 278
Height
5809 5811 5812 5813 5814 5814 5815 5815 5816 5816 5816 5817 5817 5817 5817 5817 5817 5817 5817 5817 5818 5818 5818 5818 5818 5818 5818 5817 5817 5816 5816 5816 5815 5814 5813 5812 5811 5810 5809 5807 5806 5804 5803
5803 5805 5806 5807 5808 5808 5809 5809 5809 5809 5809 5810 5810 5810 5810 5810 5810 5810 5810 5810 5811 5811 5811 5811 5811 5811 5811 5811 5810 5810 5810 5810 5809 5808 5807 5806 5805 5804 5802 5801 5800 5798 5796
5797 5798 5800 5801 5801 5802 5802 5802 5802 5802 5802 5802 5802 5803 5803 5803 5803 5803 5803 5803 5804 5804 5804 5804 5804 5804 5804 5804 5804 5804 5803 5803 5802 5802 5801 5799 5798 5797 5795 5794 5792 5791 5789
5790 5792 5793 5794 5795 5795 5796 5796 5796 5795 5795 5795 5795 5795 5795 5795 5795 5796 5796 5796 5797 5797 5797 5797 5798 5797 5797 5797 5797 5797 5796 5796 5795 5794 5793 5792 5791 5789 5788 5786 5785 5783 5782
5783 5785 5787 5787 5788 5789 5789 5789 5789 5788 5788 5787 5787 5787 5787 5787 5788 5788 5788 5789 5789 5789 5789 5790 5790 5790 5790 5790 5790 5790 5789 5788 5788 5787 5785 5784 5783 5781 5780 5778 5777 5775 5773
5777 5778 5780 5781 5781 5782 5782 5781 5781 5780 5780 5779 5779 5779 5779 5779 5780 5780 5780 5781 5781 5781 5782 5782 5782 5782 5782 5782 5782 5782 5781 5781 5780 5779 5777 5776 5775 5773 5772 5770 5768 5767 5765
5770 5771 5773 5774 5774 5775 5774 5774 5774 5773 5772 5772 5771 5772 5772 5772 5772 5772 5772 5772 5773 5773 5773 5773 5773 5774 5774 5774 5774 5774 5773 5772 5772 5771 5769 5768 5766 5764 5763 5761 5759 5758 5756
5763 5765 5766 5767 5767 5767 5767 5767 5767 5766 5765 5765 5764 5764 5764 5765 5764 5764 5764 5764 5764 5764 5764 5764 5764 5765 5765 5765 5766 5765 5765 5764 5763 5762 5760 5759 5757 5755 5754 5752 5750 5748 5747
5756 5758 5759 5760 5760 5760 5760 5760 5760 5760 5759 5758 5757 5757 5757 5757 5757 5757 5756 5756 5756 5755 5755 5755 5755 5756 5756 5756 5757 5756 5756 5755 5754 5753 5752 5750 5748 5746 5744 5743 5741 5739 5737
5749 5751 5752 5753 5753 5753 5753 5753 5753 5753 5752 5751 5750 5750 5749 5749 5749 5749 5749 5748 5747 5746 5745 5745 5746 5746 5747 5747 5747 5747 5747 5746 5745 5744 5742 5740 5739 5737 5735 5733 5731 5730 5728
5742 5743 5744 5745 5745 5746 5746 5746 5745 5745 5745 5744 5743 5743 5742 5741 5741 5741 5741 5740 5739 5737 5736 5736 5736 5737 5737 5737 5737 5737 5737 5736 5735 5734 5732 5731 5728 5727 5725 5724 5722 5720 5718
5735 5736 5737 5737 5738 5738 5738 5738 5738 5738 5737 5736 5736 5735 5734 5734 5733 5733 5732 5732 5730 5729 5728 5728 5728 5728 5728 5728 5728 5728 5727 5726 5725 5724 5723 5721 5718 5717 5715 5713 5711 5710 5708
5727 5728 5728 5729 5730 5730 5730 5730 5730 5730 5729 5729 5728 5727 5727 5726 5725 5725 5724 5723 5722 5721 5720 5719 5719 5719 5719 5718 5718 5718 5717 5716 5716 5714 5713 5711 5709 5707 5705 5703 5701 5699 5698
5719 5719 5720 5720 5721 5721 5721 5721 5721 5721 5721 5721 5720 5719 5719 5718 5717 5716 5716 5715 5714 5713 5712 5711 5710 5710 5710 5709 5709 5708 5707 5707 5705 5704 5703 5701 5699 5697 5695 5693 5691 5689 5687
5710 5710 5710 5711 5711 5712 5712 5712 5712 5712 5712 5711 5711 5710 5710 5709 5708 5707 5706 5705 5705 5704 5704 5703 5701 5701 5700 5699 5699 5698 5697 5696 5695 5694 5692 5691 5689 5687 5685 5683 5681 5679 5677
5700 5700 5701 5701 5701 5702 5702 5703 5702 5702 5702 5702 5701 5701 5700 5700 5699 5698 5697 5696 5695 5694 5694 5694 5692 5691 5690 5690 5689 5688 5687 5686 5685 5683 5682 5680 5678 5677 5675 5673 5671 5669 5667
5690 5690 5690 5690 5691 5692 5692 5692 5692 5692 5692 5691 5691 5690 5690 5689 5689 5688 5687 5686 5685 5684 5684 5684 5682 5681 5680 5680 5679 5678 5677 5675 5674 5672 5671 5669 5668 5666 5664 5662 5660 5658 5656
5679 5679 5680 5680 5680 5681 5681 5681 5681 5681 5680 5680 5680 5679 5679 5678 5678 5677 5677 5676 5675 5674 5673 5673 5672 5671 5670 5669 5668 5667 5666 5665 5664 5662 5660 5659 5657 5656 5654 5652 5650 5648 5645
5668 5668 5669 5669 5669 5669 5669 5669 5669 5669 5668 5668 5668 5667 5667 5667 5667 5666 5666 5665 5664 5663 5662 5662 5661 5660 5659 5658 5657 5656 5655 5654 5653 5651 5649 5648 5646 5645 5643 5641 5639 5637 5635
5656 5657 5657 5657 5657 5657 5657 5657 5657 5656 5656 5656 5655 5655 5655 5655 5655 5654 5654 5654 5653 5652 5651 5650 5649 5649 5648 5647 5646 5645 5644 5643 5642 5640 5638 5637 5635 5634 5632 5630 5629 5627 5625
5645 5645 5645 5645 5645 5645 5645 5644 5644 5644 5643 5643 5643 5643 5642 5642 5642 5642 5642 5642 5641 5640 5639 5638 5637 5637 5636 5635 5635 5634 5633 5631 5630 5629 5627 5626 5625 5623 5621 5619 5617 5616 5614
5632 5632 5633 5633 5633 5632 5632 5631 5631 5631 5630 5630 5630 5629 5629 5629 5629 5629 5629 5628 5628 5627 5627 5626 5625 5625 5624 5624 5623 5622 5620 5620 5619 5618 5616 5615 5613 5611 5610 5608 5606 5604 5602
5619 5619 5619 5619 5619 5619 5618 5618 5617 5617 5617 5616 5616 5615 5615 5615 5615 5615 5615 5615 5615 5614 5614 5613 5613 5613 5612 5611 5610 5610 5608 5607 5607 5606 5604 5603 5601 5600 5598 5596 5595 5593 5591
5604 5605 5605 5605 5605 5604 5604 5603 5602 5602 5602 5602 5601 5601 5601 5601 5600 5600 5600 5601 5601 5601 5600 5600 5601 5600 5599 5598 5597 5597 5595 5595 5594 5593 5592 5591 5590 5588 5586 5585 5583 5581 5580
5589 5589 5589 5589 5589 5589 5588 5587 5586 5586 5586 5586 5586 5586 5585 5585 5585 5585 5585 5586 5586 5587 5586 5586 5587 5586 5586 5585 5584 5584 5583 5582 5582 5581 5579 5578 5577 5576 5574 5573 5571 5569 5567
5574 5574 5573 5573 5573 5573 5572 5571 5570 5570 5570 5571 5570 5570 5569 5569 5569 5568 5569 5570 5571 5572 5572 5572 5572 5573 5572 5572 5571 5571 5570 5569 5569 5568 5567 5566 5564 5563 5563 5561 5559 5557 5555